QPF
0.00 0.00 0.00 0.00 0.00 0.00 0.00 0.00 0.00 0.00 0.00 0.00 0.00 0.00 0.00 0.00 0.00 0.00 0.00 0.00 0.00 0.00 0.00 0.00 0.00 0.00 0.00 0.00 0.00 0.00 0.00 0.00 0.00 0.00 0.00 0.00 0.00 0.00 0.00 0.00 0.00 0.00 0.00 0.00 0.00 0.01 0.01 0.03 0.04 0.11 0.18 0.18 0.18 0.17 0.15 0.13 0.12 0.11 0.09 0.07 0.03 0.02 0.01 0.01 0.01 0.00 0.00 0.00 0.00
0.00 0.00 0.00 0.00 0.00 0.00 0.00 0.00 0.00 0.00 0.00 0.00 0.00 0.00 0.00 0.00 0.00 0.00 0.00 0.00 0.00 0.00 0.00 0.00 0.00 0.00 0.00 0.00 0.00 0.00 0.00 0.00 0.00 0.00 0.00 0.00 0.00 0.00 0.00 0.00 0.00 0.00 0.00 0.00 0.01 0.02 0.04 0.07 0.14 0.16 0.14 0.12 0.10 0.09 0.07 0.06 0.06 0.05 0.05 0.04 0.02 0.01 0.00 0.00 0.00 0.00 0.00 0.00 0.00
0.00 0.00 0.00 0.00 0.00 0.00 0.00 0.00 0.00 0.00 0.00 0.00 0.00 0.00 0.00 0.00 0.00 0.00 0.00 0.00 0.00 0.00 0.00 0.00 0.00 0.00 0.00 0.00 0.00 0.00 0.00 0.00 0.00 0.00 0.00 0.00 0.00 0.00 0.00 0.00 0.00 0.01 0.02 0.04 0.07 0.10 0.13 0.16 0.10 0.08 0.07 0.06 0.06 0.06 0.05 0.04 0.04 0.03 0.03 0.02 0.01 0.01 0.00 0.00 0.00 0.00 0.00 0.00 0.00
0.00 0.00 0.00 0.00 0.00 0.00 0.00 0.00 0.00 0.00 0.00 0.00 0.00 0.00 0.00 0.00 0.00 0.00 0.00 0.00 0.00 0.00 0.00 0.00 0.00 0.00 0.00 0.00 0.00 0.00 0.00 0.00 0.00 0.00 0.00 0.00 0.00 0.00 0.00 0.01 0.01 0.03 0.06 0.10 0.12 0.13 0.10 0.04 0.04 0.04 0.05 0.05 0.05 0.05 0.04 0.03 0.02 0.02 0.01 0.00 0.00 0.00 0.00 0.00 0.00 0.00 0.00 0.00 0.00
0.00 0.00 0.00 0.00 0.00 0.00 0.00 0.00 0.00 0.00 0.00 0.00 0.00 0.00 0.00 0.00 0.00 0.00 0.00 0.00 0.00 0.00 0.00 0.00 0.00 0.00 0.00 0.00 0.00 0.00 0.00 0.00 0.00 0.00 0.00 0.00 0.00 0.01 0.02 0.03 0.04 0.04 0.04 0.03 0.03 0.03 0.02 0.02 0.02 0.03 0.03 0.03 0.03 0.03 0.02 0.02 0.01 0.01 0.00 0.00 0.00 0.00 0.00 0.00 0.00 0.00 0.00 0.00 0.00
0.00 0.00 0.00 0.00 0.00 0.00 0.00 0.00 0.00 0.00 0.00 0.00 0.00 0.00 0.00 0.00 0.00 0.00 0.00 0.00 0.00 0.00 0.00 0.00 0.00 0.00 0.00 0.00 0.00 0.00 0.00 0.00 0.00 0.00 0.00 0.00 0.00 0.00 0.00 0.00 0.00 0.00 0.00 0.01 0.01 0.01 0.01 0.02 0.02 0.02 0.03 0.04 0.04 0.03 0.02 0.02 0.01 0.01 0.00 0.00 0.00 0.00 0.00 0.00 0.00 0.00 0.00 0.00 0.00
0.00 0.00 0.00 0.00 0.00 0.00 0.00 0.00 0.00 0.00 0.00 0.00 0.00 0.00 0.00 0.00 0.00 0.00 0.00 0.00 0.00 0.00 0.00 0.00 0.00 0.00 0.00 0.00 0.00 0.00 0.00 0.00 0.00 0.00 0.00 0.00 0.00 0.00 0.00 0.00 0.00 0.00 0.00 0.01 0.01 0.02 0.03 0.03 0.04 0.04 0.04 0.03 0.03 0.02 0.01 0.01 0.00 0.00 0.00 0.00 0.00 0.00 0.00 0.00 0.00 0.00 0.00 0.00 0.00
0.00 0.00 0.00 0.00 0.00 0.00 0.00 0.00 0.00 0.00 0.00 0.00 0.00 0.00 0.00 0.00 0.00 0.00 0.00 0.00 0.00 0.00 0.00 0.00 0.00 0.00 0.00 0.00 0.00 0.00 0.00 0.00 0.00 0.00 0.00 0.00 0.00 0.00 0.00 0.00 0.00 0.00 0.00 0.01 0.01 0.02 0.02 0.01 0.01 0.01 0.01 0.00 0.00 0.00 0.00 0.00 0.00 0.00 0.00 0.00 0.00 0.00 0.00 0.00 0.00 0.00 0.00 0.00 0.00
0.00 0.00 0.00 0.00 0.00 0.00 0.00 0.00 0.00 0.00 0.00 0.00 0.00 0.00 0.00 0.00 0.00 0.00 0.00 0.00 0.00 0.00 0.00 0.00 0.00 0.00 0.00 0.00 0.00 0.00 0.00 0.00 0.00 0.00 0.00 0.00 0.00 0.00 0.00 0.00 0.00 0.00 0.01 0.01 0.00 0.00 0.00 0.00 0.00 0.00 0.00 0.00 0.00 0.00 0.00 0.00 0.00 0.00 0.00 0.00 0.00 0.00 0.00 0.00 0.00 0.00 0.00 0.00 0.00
0.00 0.00 0.00 0.00 0.00 0.00 0.00 0.00 0.00 0.00 0.00 0.00 0.00 0.00 0.00 0.00 0.00 0.00 0.00 0.00 0.00 0.00 0.00 0.00 0.00 0.00 0.00 0.00 0.00 0.00 0.00 0.00 0.00 0.00 0.00 0.00 0.00 0.00 0.00 0.00 0.00 0.00 0.00 0.00 0.00 0.00 0.00 0.00 0.00 0.00 0.00 0.00 0.00 0.00 0.00 0.00 0.00 0.00 0.00 0.00 0.00 0.00 0.00 0.00 0.00 0.00 0.00 0.00 0.00
0.00 0.00 0.00 0.00 0.00 0.00 0.00 0.00 0.00 0.00 0.00 0.00 0.00 0.00 0.00 0.00 0.00 0.00 0.00 0.00 0.00 0.00 0.00 0.00 0.00 0.00 0.00 0.00 0.00 0.00 0.00 0.00 0.00 0.00 0.00 0.00 0.00 0.00 0.00 0.00 0.00 0.00 0.00 0.00 0.00 0.00 0.00 0.00 0.00 0.00 0.00 0.00 0.00 0.00 0.00 0.00 0.00 0.00 0.00 0.00 0.00 0.00 0.00 0.00 0.00 0.00 0.00 0.00 0.00
0.00 0.00 0.00 0.00 0.00 0.00 0.00 0.00 0.00 0.00 0.00 0.00 0.00 0.00 0.00 0.00 0.00 0.00 0.00 0.00 0.00 0.00 0.00 0.00 0.00 0.00 0.00 0.00 0.00 0.00 0.00 0.00 0.00 0.00 0.00 0.00 0.00 0.00 0.00 0.00 0.00 0.00 0.00 0.00 0.00 0.00 0.00 0.00 0.00 0.00 0.00 0.00 0.00 0.00 0.00 0.00 0.00 0.00 0.00 0.00 0.00 0.00 0.00 0.00 0.00 0.00 0.00 0.00 0.00
0.00 0.00 0.00 0.00 0.00 0.00 0.00 0.00 0.00 0.00 0.00 0.00 0.00 0.00 0.00 0.00 0.00 0.00 0.00 0.00 0.00 0.00 0.00 0.00 0.00 0.00 0.00 0.00 0.00 0.00 0.00 0.00 0.00 0.00 0.00 0.00 0.00 0.00 0.00 0.00 0.00 0.00 0.00 0.00 0.00 0.00 0.00 0.00 0.00 0.00 0.00 0.00 0.00 0.00 0.00 0.00 0.00 0.00 0.00 0.00 0.00 0.00 0.00 0.00 0.00 0.00 0.00 0.00 0.00
0.00 0.00 0.00 0.00 0.00 0.00 0.00 0.00 0.00 0.00 0.00 0.00 0.00 0.00 0.00 0.00 0.00 0.00 0.00 0.00 0.00 0.00 0.00 0.00 0.00 0.00 0.00 0.00 0.00 0.00 0.00 0.00 0.00 0.00 0.00 0.00 0.00 0.00 0.00 0.00 0.00 0.00 0.00 0.00 0.00 0.00 0.00 0.00 0.00 0.00 0.00 0.00 0.00 0.00 0.00 0.00 0.00 0.00 0.00 0.00 0.00 0.00 0.00 0.00 0.00 0.00 0.00 0.00 0.00
0.00 0.00 0.00 0.00 0.00 0.00 0.00 0.00 0.00 0.00 0.00 0.00 0.00 0.00 0.00 0.00 0.00 0.00 0.00 0.00 0.00 0.00 0.00 0.00 0.00 0.00 0.00 0.00 0.00 0.00 0.00 0.00 0.00 0.00 0.00 0.00 0.00 0.00 0.00 0.00 0.00 0.00 0.00 0.00 0.00 0.00 0.00 0.00 0.00 0.00 0.00 0.00 0.00 0.00 0.00 0.00 0.00 0.00 0.00 0.00 0.00 0.00 0.00 0.00 0.00 0.00 0.00 0.00 0.00
0.00 0.00 0.00 0.00 0.00 0.00 0.00 0.00 0.00 0.00 0.00 0.00 0.00 0.00 0.00 0.00 0.00 0.00 0.00 0.00 0.00 0.00 0.00 0.00 0.00 0.00 0.00 0.00 0.00 0.00 0.00 0.00 0.00 0.00 0.00 0.00 0.00 0.00 0.00 0.00 0.00 0.00 0.00 0.00 0.00 0.00 0.00 0.00 0.00 0.00 0.00 0.00 0.00 0.00 0.00 0.00 0.00 0.00 0.00 0.00 0.00 0.00 0.00 0.00 0.00 0.00 0.00 0.00 0.00
0.00 0.00 0.00 0.00 0.00 0.00 0.00 0.00 0.00 0.00 0.00 0.00 0.00 0.00 0.00 0.00 0.00 0.00 0.00 0.00 0.00 0.00 0.00 0.00 0.00 0.00 0.00 0.00 0.00 0.00 0.00 0.00 0.00 0.00 0.00 0.00 0.00 0.00 0.00 0.00 0.00 0.00 0.00 0.00 0.00 0.00 0.00 0.00 0.00 0.00 0.00 0.00 0.00 0.00 0.00 0.00 0.00 0.00 0.00 0.00 0.00 0.00 0.00 0.00 0.00 0.00 0.00 0.00 0.00
0.00 0.00 0.00 0.00 0.00 0.00 0.00 0.00 0.00 0.00 0.00 0.00 0.00 0.00 0.00 0.00 0.00 0.00 0.00 0.00 0.00 0.00 0.00 0.00 0.00 0.00 0.00 0.00 0.00 0.00 0.00 0.00 0.00 0.00 0.00 0.00 0.00 0.00 0.00 0.00 0.00 0.00 0.00 0.00 0.00 0.00 0.00 0.00 0.00 0.00 0.00 0.00 0.00 0.00 0.00 0.00 0.00 0.00 0.00 0.00 0.00 0.00 0.00 0.00 0.00 0.00 0.00 0.00 0.00
0.00 0.00 0.00 0.00 0.00 0.00 0.00 0.00 0.00 0.00 0.00 0.00 0.00 0.00 0.00 0.00 0.00 0.00 0.00 0.00 0.00 0.00 0.00 0.00 0.00 0.00 0.00 0.00 0.00 0.00 0.00 0.00 0.00 0.00 0.00 0.00 0.00 0.00 0.00 0.00 0.00 0.00 0.00 0.00 0.00 0.00 0.00 0.00 0.00 0.00 0.00 0.00 0.00 0.00 0.00 0.00 0.00 0.00 0.00 0.00 0.00 0.00 0.00 0.00 0.00 0.00 0.00 0.00 0.00
0.00 0.00 0.00 0.00 0.00 0.00 0.00 0.00 0.00 0.00 0.00 0.00 0.00 0.00 0.00 0.00 0.00 0.00 0.00 0.00 0.00 0.00 0.00 0.00 0.00 0.00 0.00 0.00 0.00 0.00 0.00 0.00 0.00 0.00 0.00 0.00 0.00 0.00 0.00 0.00 0.00 0.00 0.00 0.00 0.00 0.00 0.00 0.00 0.00 0.00 0.00 0.00 0.00 0.00 0.00 0.00 0.00 0.00 0.00 0.00 0.00 0.00 0.00 0.00 0.00 0.00 0.00 0.00 0.00
0.00 0.00 0.00 0.00 0.00 0.00 0.00 0.00 0.00 0.00 0.00 0.00 0.00 0.00 0.00 0.00 0.00 0.00 0.00 0.00 0.00 0.00 0.00 0.00 0.00 0.00 0.00 0.00 0.00 0.00 0.00 0.00 0.00 0.00 0.00 0.00 0.00 0.00 0.00 0.00 0.00 0.00 0.00 0.00 0.00 0.00 0.00 0.00 0.00 0.00 0.00 0.00 0.00 0.00 0.00 0.00 0.00 0.00 0.00 0.00 0.00 0.00 0.00 0.00 0.00 0.00 0.00 0.00 0.00
0.00 0.00 0.00 0.00 0.00 0.00 0.00 0.00 0.00 0.00 0.00 0.00 0.00 0.00 0.00 0.00 0.00 0.00 0.00 0.00 0.00 0.00 0.00 0.00 0.00 0.00 0.00 0.00 0.00 0.00 0.00 0.00 0.00 0.00 0.00 0.00 0.00 0.00 0.00 0.00 0.00 0.00 0.00 0.00 0.00 0.00 0.00 0.00 0.00 0.00 0.00 0.00 0.00 0.00 0.00 0.00 0.00 0.00 0.00 0.00 0.00 0.00 0.00 0.00 0.00 0.00 0.00 0.00 0.00
0.00 0.00 0.00 0.00 0.00 0.00 0.00 0.00 0.00 0.00 0.00 0.00 0.00 0.00 0.00 0.00 0.00 0.00 0.00 0.00 0.00 0.00 0.00 0.00 0.00 0.00 0.00 0.00 0.00 0.00 0.00 0.00 0.00 0.00 0.00 0.00 0.00 0.00 0.00 0.00 0.00 0.00 0.00 0.00 0.00 0.00 0.00 0.00 0.00 0.00 0.00 0.00 0.00 0.00 0.00 0.00 0.00 0.00 0.00 0.00 0.00 0.00 0.00 0.00 0.00 0.00 0.00 0.00 0.00
0.00 0.00 0.00 0.00 0.00 0.00 0.00 0.00 0.00 0.00 0.00 0.00 0.00 0.00 0.00 0.00 0.00 0.00 0.00 0.00 0.00 0.00 0.00 0.00 0.00 0.00 0.00 0.00 0.00 0.00 0.00 0.00 0.00 0.00 0.00 0.00 0.00 0.00 0.00 0.00 0.00 0.00 0.00 0.00 0.00 0.00 0.00 0.00 0.00 0.00 0.00 0.00 0.00 0.00 0.00 0.00 0.00 0.00 0.00 0.00 0.00 0.00 0.00 0.00 0.00 0.00 0.00 0.00 0.00
0.00 0.00 0.00 0.00 0.00 0.00 0.00 0.00 0.00 0.00 0.00 0.00 0.00 0.00 0.00 0.00 0.00 0.00 0.00 0.00 0.00 0.00 0.00 0.00 0.00 0.00 0.00 0.00 0.00 0.00 0.00 0.00 0.00 0.00 0.00 0.00 0.00 0.00 0.00 0.00 0.00 0.00 0.00 0.00 0.00 0.00 0.00 0.00 0.00 0.00 0.00 0.00 0.00 0.00 0.00 0.00 0.00 0.00 0.00 0.00 0.00 0.00 0.00 0.00 0.00 0.00 0.00 0.00 0.00
0.00 0.00 0.00 0.00 0.00 0.00 0.00 0.00 0.00 0.00 0.00 0.00 0.00 0.00 0.00 0.00 0.00 0.00 0.00 0.00 0.00 0.00 0.00 0.00 0.00 0.00 0.00 0.00 0.00 0.00 0.00 0.00 0.00 0.00 0.00 0.00 0.00 0.00 0.00 0.00 0.00 0.00 0.00 0.00 0.00 0.00 0.00 0.00 0.00 0.00 0.00 0.00 0.00 0.00 0.00 0.00 0.00 0.00 0.00 0.00 0.00 0.00 0.00 0.00 0.00 0.00 0.00 0.00 0.00
0.00 0.00 0.00 0.00 0.00 0.00 0.00 0.00 0.00 0.00 0.00 0.00 0.00 0.00 0.00 0.00 0.00 0.00 0.00 0.00 0.00 0.00 0.00 0.00 0.00 0.00 0.00 0.00 0.00 0.00 0.00 0.00 0.00 0.00 0.00 0.00 0.00 0.00 0.00 0.00 0.00 0.00 0.00 0.00 0.00 0.00 0.00 0.00 0.00 0.00 0.00 0.00 0.00 0.00 0.00 0.00 0.00 0.00 0.00 0.00 0.00 0.00 0.00 0.00 0.00 0.00 0.00 0.00 0.00
0.00 0.00 0.00 0.00 0.00 0.00 0.00 0.00 0.00 0.00 0.00 0.00 0.00 0.00 0.00 0.00 0.00 0.00 0.00 0.00 0.00 0.00 0.00 0.00 0.00 0.00 0.00 0.00 0.00 0.00 0.00 0.00 0.00 0.00 0.00 0.00 0.00 0.00 0.00 0.00 0.00 0.00 0.00 0.00 0.00 0.00 0.00 0.00 0.00 0.00 0.00 0.00 0.00 0.00 0.00 0.00 0.00 0.00 0.00 0.00 0.00 0.00 0.00 0.00 0.00 0.00 0.00 0.00 0.00
0.00 0.00 0.00 0.00 0.00 0.00 0.00 0.00 0.00 0.00 0.00 0.00 0.00 0.00 0.00 0.00 0.00 0.00 0.00 0.00 0.00 0.00 0.00 0.00 0.00 0.00 0.00 0.00 0.00 0.00 0.00 0.00 0.00 0.00 0.00 0.00 0.00 0.00 0.00 0.00 0.00 0.00 0.00 0.00 0.00 0.00 0.00 0.00 0.00 0.00 0.00 0.00 0.00 0.00 0.00 0.00 0.00 0.00 0.00 0.00 0.00 0.00 0.00 0.00 0.00 0.00 0.00 0.00 0.00
0.00 0.00 0.00 0.00 0.00 0.00 0.00 0.00 0.00 0.00 0.00 0.00 0.00 0.00 0.00 0.00 0.00 0.00 0.00 0.00 0.00 0.00 0.00 0.00 0.00 0.00 0.00 0.00 0.00 0.00 0.00 0.00 0.00 0.00 0.00 0.00 0.00 0.00 0.00 0.00 0.00 0.00 0.00 0.00 0.00 0.00 0.00 0.00 0.00 0.00 0.00 0.00 0.00 0.00 0.00 0.00 0.00 0.00 0.00 0.00 0.00 0.00 0.00 0.00 0.00 0.00 0.00 0.00 0.00
0.00 0.00 0.00 0.00 0.00 0.00 0.00 0.00 0.00 0.00 0.00 0.00 0.00 0.00 0.00 0.00 0.00 0.00 0.00 0.00 0.00 0.00 0.00 0.00 0.00 0.00 0.00 0.00 0.00 0.00 0.00 0.00 0.01 0.01 0.01 0.01 0.01 0.00 0.00 0.00 0.00 0.00 0.00 0.00 0.00 0.00 0.00 0.00 0.00 0.00 0.00 0.00 0.00 0.00 0.00 0.00 0.00 0.00 0.00 0.00 0.00 0.00 0.00 0.00 0.00 0.00 0.00 0.00 0.00
0.00 0.00 0.00 0.00 0.00 0.00 0.00 0.00 0.00 0.00 0.00 0.00 0.00 0.00 0.00 0.00 0.00 0.00 0.00 0.00 0.00 0.00 0.00 0.00 0.00 0.00 0.00 0.00 0.01 0.01 0.01 0.01 0.01 0.01 0.01 0.01 0.01 0.00 0.00 0.00 0.00 0.00 0.00 0.00 0.00 0.00 0.00 0.00 0.00 0.00 0.00 0.00 0.00 0.00 0.00 0.00 0.00 0.00 0.00 0.00 0.00 0.00 0.00 0.00 0.00 0.00 0.00 0.00 0.00
0.00 0.00 0.00 0.00 0.00 0.00 0.00 0.00 0.00 0.00 0.00 0.00 0.00 0.00 0.00 0.00 0.00 0.00 0.00 0.00 0.00 0.00 0.00 0.00 0.01 0.01 0.01 0.01 0.02 0.02 0.02 0.02 0.01 0.01 0.01 0.00 0.00 0.00 0.00 0.00 0.00 0.00 0.00 0.00 0.00 0.00 0.00 0.00 0.00 0.00 0.00 0.00 0.00 0.00 0.00 0.00 0.00 0.00 0.00 0.00 0.00 0.00 0.00 0.00 0.00 0.00 0.00 0.00 0.00
0.00 0.00 0.00 0.00 0.00 0.00 0.00 0.00 0.00 0.00 0.00 0.00 0.00 0.00 0.00 0.00 0.00 0.00 0.00 0.00 0.00 0.00 0.01 0.02 0.02 0.02 0.02 0.02 0.02 0.02 0.01 0.01 0.01 0.01 0.00 0.00 0.00 0.00 0.00 0.00 0.00 0.00 0.00 0.00 0.00 0.00 0.00 0.00 0.00 0.00 0.00 0.00 0.00 0.00 0.00 0.00 0.00 0.00 0.00 0.00 0.00 0.00 0.00 0.00 0.00 0.00 0.00 0.00 0.00
0.00 0.00 0.00 0.00 0.00 0.00 0.00 0.00 0.00 0.00 0.00 0.00 0.00 0.01 0.01 0.01 0.00 0.00 0.00 0.00 0.01 0.01 0.02 0.02 0.02 0.02 0.02 0.01 0.01 0.01 0.01 0.00 0.00 0.00 0.00 0.00 0.00 0.00 0.00 0.00 0.00 0.00 0.00 0.00 0.00 0.00 0.00 0.00 0.00 0.00 0.00 0.00 0.00 0.00 0.00 0.00 0.00 0.00 0.00 0.00 0.00 0.00 0.00 0.00 0.00 0.00 0.00 0.00 0.00
0.00 0.00 0.00 0.00 0.00 0.00 0.00 0.00 0.00 0.00 0.00 0.01 0.01 0.00 0.00 0.00 0.00 0.00 0.01 0.01 0.01 0.01 0.01 0.01 0.01 0.01 0.01 0.01 0.00 0.00 0.00 0.00 0.00 0.00 0.00 0.00 0.00 0.00 0.00 0.00 0.00 0.00 0.00 0.00 0.00 0.00 0.00 0.00 0.00 0.00 0.00 0.00 0.00 0.00 0.00 0.00 0.00 0.00 0.00 0.00 0.00 0.00 0.00 0.00 0.00 0.00 0.00 0.00 0.00
0.00 0.00 0.00 0.00 0.00 0.00 0.00 0.00 0.00 0.00 0.01 0.00 0.00 0.00 0.00 0.00 0.00 0.01 0.01 0.01 0.01 0.01 0.01 0.01 0.01 0.00 0.00 0.00 0.00 0.00 0.00 0.00 0.00 0.00 0.00 0.00 0.00 0.00 0.00 0.00 0.00 0.00 0.00 0.00 0.00 0.00 0.00 0.00 0.00 0.00 0.00 0.00 0.00 0.00 0.00 0.00 0.00 0.00 0.00 0.00 0.00 0.00 0.00 0.00 0.00 0.00 0.00 0.00 0.00
0.00 0.00 0.00 0.00 0.00 0.00 0.00 0.00 0.00 0.00 0.00 0.00 0.00 0.00 0.00 0.00 0.00 0.00 0.00 0.00 0.00 0.00 0.00 0.00 0.00 0.00 0.00 0.00 0.00 0.00 0.00 0.00 0.00 0.00 0.00 0.00 0.00 0.00 0.00 0.00 0.00 0.00 0.00 0.00 0.00 0.00 0.00 0.00 0.00 0.00 0.00 0.00 0.00 0.00 0.00 0.00 0.00 0.00 0.00 0.00 0.00 0.00 0.00 0.00 0.00 0.00 0.00 0.00 0.00
0.00 0.00 0.00 0.00 0.00 0.00 0.00 0.00 0.00 0.00 0.00 0.00 0.00 0.00 0.00 0.00 0.00 0.00 0.00 0.00 0.00 0.00 0.00 0.00 0.00 0.00 0.00 0.00 0.00 0.00 0.00 0.00 0.00 0.00 0.00 0.00 0.00 0.00 0.00 0.00 0.00 0.00 0.00 0.00 0.00 0.00 0.00 0.00 0.00 0.00 0.00 0.00 0.00 0.00 0.00 0.00 0.00 0.00 0.00 0.00 0.00 0.00 0.00 0.00 0.00 0.00 0.00 0.00 0.00
0.00 0.00 0.00 0.00 0.00 0.00 0.00 0.00 0.00 0.00 0.00 0.00 0.00 0.00 0.00 0.00 0.00 0.00 0.00 0.00 0.00 0.00 0.00 0.00 0.00 0.00 0.00 0.00 0.00 0.00 0.00 0.00 0.00 0.00 0.00 0.00 0.00 0.00 0.00 0.00 0.00 0.00 0.00 0.00 0.00 0.00 0.00 0.00 0.00 0.00 0.00 0.00 0.00 0.00 0.00 0.00 0.00 0.00 0.00 0.00 0.00 0.00 0.00 0.00 0.00 0.00 0.00 0.00 0.00
0.00 0.00 0.00 0.00 0.00 0.00 0.00 0.00 0.00 0.00 0.00 0.00 0.00 0.00 0.00 0.00 0.00 0.00 0.00 0.00 0.00 0.00 0.00 0.00 0.00 0.00 0.00 0.00 0.00 0.00 0.00 0.00 0.00 0.00 0.00 0.00 0.00 0.00 0.00 0.00 0.00 0.00 0.00 0.00 0.00 0.00 0.00 0.00 0.00 0.00 0.00 0.00 0.00 0.00 0.00 0.00 0.00 0.00 0.00 0.00 0.00 0.00 0.00 0.00 0.00 0.00 0.00 0.00 0.00
MSLP
1017.60 1017.56 1017.52 1017.48 1017.48 1017.48 1017.48 1017.44 1017.40 1017.32 1017.28 1017.20 1017.20 1017.24 1017.24 1017.28 1017.24 1017.16 1017.04 1016.96 1016.92 1016.92 1016.88 1016.84 1016.80 1016.80 1016.76 1016.76 1016.76 1016.76 1016.88 1016.92 1017.00 1017.04 1017.08 1017.12 1017.16 1017.20 1017.20 1017.24 1017.36 1017.56 1017.80 1018.04 1018.24 1018.40 1018.52 1018.60 1018.68 1018.76 1018.92 1019.04 1019.20 1019.28 1019.32 1019.40 1019.48 1019.60 1019.68 1019.76 1019.80 1019.84 1019.88 1019.88 1019.88 1019.84 1019.80 1019.76 1019.64
1017.60 1017.56 1017.52 1017.48 1017.48 1017.48 1017.48 1017.44 1017.36 1017.28 1017.24 1017.20 1017.20 1017.28 1017.32 1017.32 1017.24 1017.20 1017.12 1017.04 1017.04 1017.00 1016.96 1016.96 1016.96 1016.96 1016.92 1016.92 1016.92 1016.92 1017.00 1017.08 1017.20 1017.32 1017.36 1017.48 1017.48 1017.48 1017.52 1017.60 1017.68 1017.76 1017.92 1018.12 1018.28 1018.40 1018.48 1018.56 1018.64 1018.76 1018.92 1019.00 1019.08 1019.16 1019.20 1019.24 1019.32 1019.40 1019.52 1019.60 1019.60 1019.64 1019.68 1019.68 1019.60 1019.60 1019.52 1019.48 1019.48
1017.60 1017.56 1017.52 1017.48 1017.48 1017.48 1017.44 1017.40 1017.32 1017.32 1017.32 1017.28 1017.32 1017.32 1017.32 1017.32 1017.28 1017.20 1017.20 1017.16 1017.12 1017.08 1017.04 1017.04 1017.04 1017.04 1017.04 1017.04 1017.00 1016.96 1017.04 1017.12 1017.24 1017.36 1017.52 1017.64 1017.76 1017.84 1017.88 1017.88 1017.96 1018.00 1018.04 1018.12 1018.20 1018.32 1018.48 1018.60 1018.76 1018.88 1018.96 1019.00 1019.04 1019.04 1019.04 1019.04 1019.12 1019.24 1019.40 1019.48 1019.44 1019.44 1019.44 1019.40 1019.32 1019.32 1019.32 1019.32 1019.32
1017.68 1017.60 1017.52 1017.48 1017.48 1017.48 1017.44 1017.36 1017.40 1017.40 1017.40 1017.36 1017.36 1017.36 1017.36 1017.32 1017.28 1017.24 1017.20 1017.20 1017.20 1017.20 1017.16 1017.12 1017.12 1017.12 1017.08 1017.04 1017.04 1017.00 1017.04 1017.12 1017.20 1017.36 1017.52 1017.68 1017.88 1017.96 1018.04 1018.16 1018.16 1018.12 1018.08 1018.12 1018.24 1018.40 1018.56 1018.68 1018.76 1018.92 1018.96 1018.96 1019.00 1018.96 1018.92 1018.96 1019.04 1019.20 1019.24 1019.20 1019.20 1019.20 1019.16 1019.12 1019.08 1019.08 1019.12 1019.16 1019.20
1017.64 1017.60 1017.52 1017.48 1017.44 1017.44 1017.44 1017.44 1017.44 1017.48 1017.48 1017.44 1017.44 1017.44 1017.40 1017.32 1017.32 1017.32 1017.28 1017.24 1017.32 1017.32 1017.32 1017.24 1017.20 1017.20 1017.16 1017.08 1017.08 1017.08 1017.08 1017.12 1017.20 1017.32 1017.44 1017.56 1017.72 1017.84 1017.96 1018.12 1018.16 1018.20 1018.20 1018.24 1018.32 1018.48 1018.60 1018.68 1018.76 1018.84 1018.88 1018.88 1018.92 1018.92 1018.92 1018.96 1019.04 1019.08 1019.08 1019.04 1018.96 1018.92 1018.92 1018.92 1018.88 1018.92 1018.96 1019.00 1019.04
1017.68 1017.60 1017.52 1017.52 1017.52 1017.48 1017.48 1017.48 1017.48 1017.52 1017.52 1017.48 1017.52 1017.52 1017.48 1017.40 1017.40 1017.36 1017.40 1017.40 1017.48 1017.48 1017.48 1017.44 1017.40 1017.40 1017.40 1017.32 1017.32 1017.28 1017.32 1017.32 1017.32 1017.36 1017.48 1017.60 1017.64 1017.68 1017.72 1017.76 1017.92 1018.04 1018.16 1018.20 1018.32 1018.40 1018.48 1018.56 1018.64 1018.72 1018.76 1018.80 1018.88 1018.92 1018.92 1018.92 1018.92 1018.92 1018.88 1018.80 1018.76 1018.68 1018.72 1018.76 1018.76 1018.76 1018.84 1018.92 1018.96
1017.76 1017.64 1017.60 1017.56 1017.56 1017.52 1017.48 1017.48 1017.52 1017.52 1017.52 1017.52 1017.60 1017.60 1017.56 1017.52 1017.56 1017.52 1017.52 1017.56 1017.60 1017.60 1017.60 1017.52 1017.52 1017.48 1017.48 1017.48 1017.48 1017.52 1017.56 1017.60 1017.60 1017.60 1017.64 1017.72 1017.76 1017.76 1017.76 1017.76 1017.80 1017.88 1017.96 1018.04 1018.20 1018.28 1018.36 1018.44 1018.48 1018.60 1018.64 1018.68 1018.76 1018.72 1018.60 1018.56 1018.56 1018.60 1018.60 1018.60 1018.56 1018.52 1018.60 1018.60 1018.60 1018.64 1018.76 1018.80 1018.92
1017.80 1017.76 1017.68 1017.60 1017.60 1017.60 1017.56 1017.60 1017.60 1017.60 1017.60 1017.56 1017.60 1017.60 1017.60 1017.60 1017.60 1017.60 1017.60 1017.60 1017.64 1017.64 1017.60 1017.56 1017.52 1017.48 1017.48 1017.48 1017.56 1017.60 1017.64 1017.68 1017.76 1017.76 1017.72 1017.72 1017.72 1017.76 1017.76 1017.76 1017.80 1017.84 1017.84 1017.88 1018.04 1018.12 1018.20 1018.24 1018.32 1018.36 1018.36 1018.36 1018.36 1018.28 1018.20 1018.24 1018.36 1018.48 1018.52 1018.52 1018.48 1018.48 1018.52 1018.52 1018.56 1018.60 1018.68 1018.76 1018.84
1017.76 1017.76 1017.72 1017.64 1017.64 1017.60 1017.60 1017.60 1017.60 1017.60 1017.60 1017.60 1017.60 1017.60 1017.56 1017.56 1017.60 1017.60 1017.60 1017.60 1017.64 1017.60 1017.60 1017.60 1017.60 1017.52 1017.52 1017.56 1017.56 1017.60 1017.60 1017.64 1017.76 1017.76 1017.76 1017.76 1017.76 1017.72 1017.72 1017.72 1017.72 1017.72 1017.76 1017.76 1017.84 1017.88 1017.88 1017.92 1018.00 1018.00 1018.00 1018.04 1018.08 1018.08 1018.16 1018.28 1018.36 1018.48 1018.48 1018.48 1018.48 1018.52 1018.56 1018.60 1018.60 1018.64 1018.68 1018.76 1018.80
1017.76 1017.72 1017.68 1017.64 1017.64 1017.60 1017.60 1017.60 1017.60 1017.60 1017.60 1017.56 1017.56 1017.52 1017.48 1017.48 1017.52 1017.56 1017.56 1017.60 1017.60 1017.60 1017.64 1017.60 1017.60 1017.60 1017.60 1017.60 1017.60 1017.56 1017.60 1017.64 1017.76 1017.76 1017.76 1017.76 1017.72 1017.72 1017.68 1017.68 1017.64 1017.60 1017.60 1017.64 1017.60 1017.64 1017.72 1017.76 1017.84 1017.88 1017.96 1018.04 1018.08 1018.16 1018.20 1018.24 1018.32 1018.44 1018.48 1018.48 1018.52 1018.60 1018.60 1018.64 1018.68 1018.72 1018.76 1018.76 1018.76
1017.76 1017.68 1017.64 1017.60 1017.60 1017.60 1017.60 1017.60 1017.60 1017.60 1017.56 1017.48 1017.52 1017.48 1017.48 1017.44 1017.48 1017.48 1017.52 1017.52 1017.60 1017.64 1017.64 1017.60 1017.60 1017.60 1017.60 1017.60 1017.60 1017.56 1017.60 1017.64 1017.72 1017.76 1017.76 1017.72 1017.68 1017.64 1017.60 1017.60 1017.52 1017.52 1017.52 1017.52 1017.56 1017.60 1017.72 1017.80 1017.88 1018.00 1018.04 1018.04 1018.08 1018.16 1018.20 1018.28 1018.36 1018.44 1018.48 1018.52 1018.60 1018.64 1018.68 1018.68 1018.72 1018.72 1018.72 1018.76 1018.72
1017.64 1017.60 1017.60 1017.60 1017.60 1017.60 1017.60 1017.60 1017.60 1017.56 1017.52 1017.52 1017.48 1017.48 1017.44 1017.40 1017.44 1017.48 1017.52 1017.56 1017.60 1017.60 1017.60 1017.60 1017.56 1017.56 1017.60 1017.60 1017.60 1017.56 1017.60 1017.60 1017.68 1017.72 1017.72 1017.72 1017.68 1017.60 1017.60 1017.56 1017.52 1017.52 1017.48 1017.48 1017.52 1017.60 1017.72 1017.80 1017.88 1017.92 1017.96 1018.00 1018.04 1018.08 1018.20 1018.24 1018.32 1018.44 1018.48 1018.52 1018.60 1018.68 1018.68 1018.64 1018.68 1018.68 1018.68 1018.68 1018.68
1017.56 1017.52 1017.52 1017.48 1017.52 1017.60 1017.60 1017.60 1017.60 1017.56 1017.56 1017.52 1017.48 1017.48 1017.44 1017.40 1017.40 1017.44 1017.48 1017.52 1017.56 1017.56 1017.56 1017.56 1017.52 1017.56 1017.56 1017.56 1017.56 1017.56 1017.56 1017.60 1017.64 1017.64 1017.64 1017.64 1017.64 1017.64 1017.60 1017.60 1017.60 1017.56 1017.52 1017.52 1017.52 1017.60 1017.68 1017.72 1017.80 1017.88 1017.96 1017.96 1018.00 1018.04 1018.16 1018.20 1018.28 1018.36 1018.48 1018.52 1018.60 1018.64 1018.64 1018.60 1018.60 1018.60 1018.64 1018.68 1018.64
1017.48 1017.48 1017.48 1017.52 1017.52 1017.56 1017.56 1017.56 1017.56 1017.52 1017.52 1017.52 1017.48 1017.44 1017.36 1017.36 1017.36 1017.40 1017.40 1017.40 1017.48 1017.48 1017.48 1017.52 1017.52 1017.52 1017.52 1017.48 1017.52 1017.52 1017.52 1017.56 1017.60 1017.60 1017.60 1017.60 1017.64 1017.64 1017.68 1017.64 1017.64 1017.60 1017.60 1017.60 1017.60 1017.60 1017.64 1017.72 1017.80 1017.88 1017.92 1017.96 1018.00 1018.04 1018.12 1018.20 1018.24 1018.32 1018.40 1018.48 1018.56 1018.56 1018.56 1018.52 1018.48 1018.52 1018.60 1018.60 1018.56
1017.56 1017.56 1017.56 1017.56 1017.56 1017.56 1017.52 1017.52 1017.48 1017.48 1017.48 1017.48 1017.44 1017.36 1017.32 1017.32 1017.32 1017.32 1017.28 1017.28 1017.32 1017.36 1017.44 1017.48 1017.48 1017.48 1017.44 1017.40 1017.44 1017.44 1017.48 1017.52 1017.60 1017.64 1017.68 1017.68 1017.72 1017.76 1017.76 1017.76 1017.76 1017.76 1017.76 1017.68 1017.68 1017.64 1017.64 1017.72 1017.76 1017.84 1017.88 1017.96 1018.00 1018.04 1018.12 1018.16 1018.20 1018.24 1018.32 1018.32 1018.40 1018.40 1018.40 1018.40 1018.40 1018.44 1018.48 1018.44 1018.40
1017.64 1017.64 1017.64 1017.60 1017.60 1017.56 1017.48 1017.44 1017.44 1017.44 1017.40 1017.36 1017.36 1017.32 1017.32 1017.24 1017.24 1017.20 1017.20 1017.20 1017.24 1017.32 1017.32 1017.40 1017.40 1017.40 1017.36 1017.36 1017.36 1017.44 1017.48 1017.60 1017.60 1017.68 1017.76 1017.76 1017.76 1017.80 1017.84 1017.88 1017.88 1017.88 1017.80 1017.76 1017.72 1017.68 1017.68 1017.68 1017.76 1017.80 1017.84 1017.88 1017.92 1018.00 1018.04 1018.08 1018.12 1018.16 1018.20 1018.20 1018.20 1018.24 1018.24 1018.24 1018.28 1018.28 1018.24 1018.20 1018.24
1017.76 1017.76 1017.72 1017.64 1017.60 1017.52 1017.48 1017.40 1017.36 1017.32 1017.32 1017.32 1017.32 1017.28 1017.24 1017.20 1017.16 1017.16 1017.16 1017.20 1017.20 1017.28 1017.32 1017.32 1017.32 1017.32 1017.36 1017.40 1017.44 1017.48 1017.56 1017.64 1017.64 1017.72 1017.76 1017.80 1017.84 1017.88 1017.92 1017.92 1017.92 1017.88 1017.88 1017.84 1017.76 1017.76 1017.72 1017.68 1017.72 1017.76 1017.80 1017.80 1017.88 1017.88 1017.92 1018.00 1018.04 1018.04 1018.08 1018.04 1018.08 1018.08 1018.04 1018.04 1018.04 1018.04 1018.04 1018.04 1018.04
1017.72 1017.72 1017.68 1017.64 1017.60 1017.48 1017.44 1017.36 1017.32 1017.28 1017.24 1017.24 1017.24 1017.20 1017.16 1017.16 1017.16 1017.16 1017.12 1017.16 1017.20 1017.24 1017.32 1017.32 1017.32 1017.32 1017.40 1017.44 1017.48 1017.56 1017.60 1017.68 1017.76 1017.76 1017.80 1017.88 1017.88 1017.92 1017.92 1017.92 1017.88 1017.88 1017.88 1017.88 1017.80 1017.76 1017.72 1017.68 1017.68 1017.68 1017.72 1017.76 1017.76 1017.80 1017.88 1017.88 1017.88 1017.88 1017.92 1017.92 1017.92 1017.88 1017.88 1017.88 1017.88 1017.88 1017.88 1017.88 1017.88
1017.52 1017.48 1017.48 1017.52 1017.48 1017.40 1017.32 1017.24 1017.20 1017.16 1017.12 1017.12 1017.12 1017.12 1017.12 1017.12 1017.12 1017.12 1017.16 1017.16 1017.20 1017.20 1017.24 1017.32 1017.32 1017.36 1017.40 1017.48 1017.56 1017.60 1017.68 1017.76 1017.80 1017.84 1017.84 1017.88 1017.88 1017.88 1017.88 1017.88 1017.92 1017.92 1017.88 1017.88 1017.84 1017.80 1017.76 1017.68 1017.64 1017.64 1017.68 1017.72 1017.72 1017.76 1017.76 1017.80 1017.80 1017.76 1017.80 1017.80 1017.76 1017.76 1017.76 1017.76 1017.72 1017.72 1017.72 1017.72 1017.68
1017.32 1017.24 1017.20 1017.12 1017.08 1017.08 1017.08 1017.04 1017.00 1017.00 1017.00 1017.00 1017.04 1017.04 1017.04 1017.04 1017.04 1017.12 1017.16 1017.16 1017.16 1017.16 1017.24 1017.32 1017.40 1017.48 1017.48 1017.56 1017.64 1017.72 1017.76 1017.80 1017.84 1017.84 1017.84 1017.84 1017.88 1017.88 1017.88 1017.92 1017.96 1017.96 1018.00 1017.96 1017.88 1017.84 1017.76 1017.72 1017.68 1017.64 1017.64 1017.68 1017.72 1017.72 1017.72 1017.72 1017.72 1017.72 1017.72 1017.68 1017.68 1017.64 1017.64 1017.60 1017.60 1017.60 1017.60 1017.56 1017.56
1017.12 1017.00 1016.84 1016.76 1016.76 1016.76 1016.76 1016.76 1016.76 1016.80 1016.88 1016.92 1016.96 1017.00 1017.00 1017.00 1017.04 1017.08 1017.08 1017.12 1017.16 1017.24 1017.32 1017.44 1017.52 1017.56 1017.60 1017.68 1017.76 1017.80 1017.80 1017.80 1017.84 1017.88 1017.88 1017.88 1017.88 1017.92 1017.92 1017.96 1018.00 1018.04 1018.04 1018.04 1018.04 1017.96 1017.88 1017.80 1017.76 1017.68 1017.64 1017.64 1017.64 1017.64 1017.64 1017.68 1017.68 1017.64 1017.64 1017.60 1017.60 1017.56 1017.52 1017.48 1017.48 1017.48 1017.48 1017.44 1017.44
1016.84 1016.68 1016.60 1016.52 1016.52 1016.56 1016.60 1016.60 1016.64 1016.72 1016.76 1016.84 1016.88 1016.92 1016.92 1016.92 1017.04 1017.04 1017.08 1017.16 1017.24 1017.32 1017.44 1017.52 1017.60 1017.60 1017.68 1017.76 1017.80 1017.84 1017.80 1017.80 1017.84 1017.88 1017.88 1017.92 1017.96 1017.96 1017.96 1018.04 1018.04 1018.08 1018.08 1018.08 1018.08 1018.04 1017.96 1017.88 1017.76 1017.72 1017.64 1017.60 1017.60 1017.60 1017.60 1017.60 1017.60 1017.60 1017.60 1017.56 1017.48 1017.48 1017.44 1017.36 1017.36 1017.36 1017.32 1017.32 1017.32
1016.60 1016.48 1016.44 1016.44 1016.44 1016.48 1016.48 1016.60 1016.60 1016.64 1016.72 1016.76 1016.80 1016.84 1016.92 1016.96 1017.04 1017.12 1017.20 1017.28 1017.32 1017.44 1017.48 1017.56 1017.60 1017.64 1017.72 1017.76 1017.76 1017.80 1017.80 1017.80 1017.80 1017.88 1017.88 1017.96 1017.96 1018.00 1018.00 1018.04 1018.08 1018.12 1018.08 1018.08 1018.04 1018.00 1017.92 1017.84 1017.76 1017.68 1017.60 1017.60 1017.60 1017.56 1017.52 1017.52 1017.52 1017.52 1017.48 1017.48 1017.40 1017.32 1017.32 1017.24 1017.24 1017.24 1017.20 1017.20 1017.20
1016.48 1016.44 1016.40 1016.44 1016.48 1016.48 1016.48 1016.56 1016.60 1016.68 1016.72 1016.72 1016.76 1016.80 1016.88 1017.00 1017.12 1017.20 1017.32 1017.36 1017.44 1017.48 1017.56 1017.56 1017.60 1017.64 1017.68 1017.72 1017.76 1017.76 1017.76 1017.80 1017.84 1017.84 1017.88 1017.88 1017.92 1017.96 1018.00 1018.04 1018.08 1018.08 1018.04 1018.00 1017.92 1017.88 1017.84 1017.72 1017.64 1017.60 1017.52 1017.48 1017.48 1017.48 1017.48 1017.44 1017.48 1017.44 1017.40 1017.36 1017.32 1017.24 1017.20 1017.16 1017.16 1017.16 1017.12 1017.04 1017.04
1016.44 1016.44 1016.44 1016.44 1016.48 1016.44 1016.48 1016.52 1016.60 1016.60 1016.60 1016.64 1016.72 1016.84 1016.96 1017.08 1017.20 1017.24 1017.32 1017.40 1017.48 1017.52 1017.56 1017.56 1017.60 1017.64 1017.68 1017.68 1017.68 1017.68 1017.72 1017.76 1017.84 1017.88 1017.88 1017.88 1017.88 1017.92 1018.00 1018.00 1018.00 1017.96 1017.92 1017.88 1017.76 1017.60 1017.56 1017.56 1017.48 1017.44 1017.40 1017.40 1017.40 1017.36 1017.36 1017.36 1017.36 1017.32 1017.32 1017.32 1017.24 1017.20 1017.16 1017.08 1017.04 1017.04 1017.00 1016.92 1016.92
1016.36 1016.40 1016.40 1016.40 1016.40 1016.40 1016.44 1016.48 1016.48 1016.48 1016.48 1016.60 1016.76 1016.92 1017.04 1017.16 1017.20 1017.24 1017.32 1017.40 1017.48 1017.52 1017.56 1017.60 1017.64 1017.72 1017.76 1017.76 1017.72 1017.72 1017.76 1017.80 1017.84 1017.88 1017.92 1017.96 1017.96 1017.96 1017.92 1017.92 1017.88 1017.80 1017.76 1017.68 1017.60 1017.48 1017.44 1017.32 1017.28 1017.28 1017.28 1017.32 1017.32 1017.32 1017.32 1017.32 1017.28 1017.28 1017.24 1017.24 1017.20 1017.20 1017.16 1017.04 1016.92 1016.84 1016.80 1016.76 1016.72
1016.32 1016.32 1016.32 1016.32 1016.36 1016.40 1016.40 1016.36 1016.44 1016.48 1016.60 1016.80 1016.92 1017.04 1017.16 1017.20 1017.20 1017.28 1017.32 1017.44 1017.52 1017.56 1017.60 1017.72 1017.76 1017.80 1017.80 1017.80 1017.80 1017.80 1017.84 1017.88 1017.88 1017.92 1017.96 1017.96 1018.00 1017.96 1017.88 1017.80 1017.76 1017.76 1017.68 1017.60 1017.48 1017.44 1017.32 1017.24 1017.20 1017.20 1017.20 1017.24 1017.28 1017.32 1017.28 1017.24 1017.24 1017.20 1017.20 1017.20 1017.12 1017.08 1017.04 1017.00 1016.88 1016.76 1016.68 1016.60 1016.52
1016.28 1016.24 1016.24 1016.28 1016.36 1016.48 1016.52 1016.60 1016.76 1016.88 1016.96 1017.04 1017.08 1017.12 1017.20 1017.20 1017.24 1017.32 1017.40 1017.48 1017.60 1017.60 1017.68 1017.76 1017.80 1017.84 1017.84 1017.84 1017.88 1017.88 1017.88 1017.92 1017.92 1017.92 1017.92 1017.92 1017.92 1017.88 1017.88 1017.80 1017.76 1017.68 1017.60 1017.48 1017.44 1017.36 1017.32 1017.24 1017.20 1017.16 1017.16 1017.20 1017.24 1017.28 1017.24 1017.20 1017.20 1017.16 1017.12 1017.12 1017.04 1017.00 1016.92 1016.88 1016.76 1016.64 1016.56 1016.48 1016.36
1016.32 1016.32 1016.32 1016.48 1016.60 1016.72 1016.88 1016.96 1017.04 1017.12 1017.08 1017.08 1017.12 1017.16 1017.20 1017.24 1017.32 1017.36 1017.48 1017.48 1017.56 1017.64 1017.76 1017.76 1017.80 1017.80 1017.84 1017.84 1017.88 1017.88 1017.88 1017.88 1017.88 1017.88 1017.88 1017.88 1017.88 1017.88 1017.84 1017.76 1017.72 1017.60 1017.56 1017.48 1017.40 1017.32 1017.32 1017.20 1017.20 1017.12 1017.08 1017.04 1017.20 1017.20 1017.20 1017.16 1017.12 1017.04 1017.00 1016.92 1016.88 1016.80 1016.76 1016.68 1016.60 1016.48 1016.48 1016.32 1016.20
1016.56 1016.60 1016.68 1016.76 1016.92 1017.00 1017.04 1017.08 1017.12 1017.12 1017.12 1017.12 1017.20 1017.20 1017.28 1017.32 1017.40 1017.44 1017.48 1017.52 1017.60 1017.64 1017.72 1017.72 1017.76 1017.76 1017.80 1017.84 1017.84 1017.84 1017.84 1017.80 1017.76 1017.80 1017.88 1017.88 1017.88 1017.80 1017.76 1017.72 1017.64 1017.60 1017.52 1017.44 1017.40 1017.32 1017.28 1017.20 1017.16 1017.08 1017.04 1017.00 1017.04 1017.12 1017.08 1017.04 1017.00 1016.92 1016.88 1016.76 1016.76 1016.68 1016.64 1016.56 1016.48 1016.40 1016.32 1016.20 1016.08
1016.64 1016.72 1016.76 1016.88 1017.00 1017.08 1017.12 1017.12 1017.12 1017.16 1017.20 1017.20 1017.24 1017.28 1017.36 1017.44 1017.48 1017.48 1017.56 1017.56 1017.60 1017.60 1017.60 1017.64 1017.72 1017.76 1017.76 1017.76 1017.76 1017.76 1017.76 1017.72 1017.72 1017.76 1017.76 1017.76 1017.76 1017.76 1017.72 1017.64 1017.60 1017.56 1017.48 1017.44 1017.40 1017.32 1017.24 1017.16 1017.08 1017.04 1016.96 1016.92 1016.96 1016.96 1016.92 1016.92 1016.88 1016.84 1016.76 1016.68 1016.60 1016.56 1016.52 1016.48 1016.36 1016.28 1016.16 1016.04 1015.88
1016.68 1016.72 1016.76 1016.88 1017.00 1017.08 1017.16 1017.16 1017.20 1017.20 1017.24 1017.28 1017.32 1017.40 1017.48 1017.52 1017.52 1017.56 1017.60 1017.60 1017.60 1017.60 1017.64 1017.64 1017.68 1017.72 1017.72 1017.68 1017.64 1017.64 1017.68 1017.64 1017.64 1017.64 1017.64 1017.68 1017.68 1017.68 1017.64 1017.60 1017.56 1017.52 1017.48 1017.40 1017.36 1017.28 1017.20 1017.12 1017.04 1016.96 1016.92 1016.84 1016.84 1016.84 1016.84 1016.80 1016.76 1016.72 1016.64 1016.60 1016.52 1016.48 1016.40 1016.28 1016.20 1016.04 1015.92 1015.80 1015.68
1016.76 1016.76 1016.80 1016.88 1016.96 1017.04 1017.12 1017.20 1017.24 1017.28 1017.32 1017.32 1017.40 1017.48 1017.52 1017.60 1017.60 1017.60 1017.60 1017.60 1017.60 1017.60 1017.60 1017.60 1017.64 1017.64 1017.64 1017.60 1017.60 1017.60 1017.60 1017.60 1017.60 1017.56 1017.56 1017.56 1017.60 1017.60 1017.60 1017.60 1017.56 1017.48 1017.48 1017.36 1017.32 1017.20 1017.12 1017.04 1016.96 1016.88 1016.80 1016.72 1016.72 1016.76 1016.76 1016.72 1016.64 1016.60 1016.52 1016.48 1016.36 1016.28 1016.20 1016.08 1015.96 1015.84 1015.72 1015.56 1015.44
1016.92 1016.92 1016.92 1016.96 1017.04 1017.12 1017.20 1017.24 1017.28 1017.32 1017.36 1017.44 1017.48 1017.56 1017.60 1017.60 1017.60 1017.60 1017.60 1017.56 1017.56 1017.52 1017.52 1017.52 1017.52 1017.56 1017.60 1017.60 1017.60 1017.60 1017.56 1017.52 1017.48 1017.48 1017.48 1017.56 1017.60 1017.64 1017.68 1017.64 1017.56 1017.48 1017.44 1017.32 1017.24 1017.16 1017.04 1016.96 1016.88 1016.76 1016.68 1016.60 1016.60 1016.64 1016.64 1016.60 1016.56 1016.48 1016.40 1016.32 1016.20 1016.08 1015.92 1015.80 1015.68 1015.56 1015.48 1015.32 1015.20
1017.04 1017.12 1017.16 1017.20 1017.20 1017.24 1017.28 1017.32 1017.32 1017.32 1017.40 1017.48 1017.52 1017.60 1017.60 1017.60 1017.60 1017.56 1017.48 1017.48 1017.44 1017.44 1017.44 1017.44 1017.44 1017.44 1017.48 1017.48 1017.48 1017.52 1017.52 1017.52 1017.48 1017.48 1017.56 1017.60 1017.68 1017.76 1017.76 1017.68 1017.56 1017.48 1017.36 1017.28 1017.16 1017.04 1016.96 1016.88 1016.76 1016.64 1016.56 1016.52 1016.56 1016.60 1016.56 1016.52 1016.44 1016.32 1016.24 1016.16 1016.00 1015.80 1015.64 1015.56 1015.44 1015.32 1015.24 1015.12 1015.00
1017.20 1017.24 1017.32 1017.32 1017.32 1017.32 1017.32 1017.32 1017.32 1017.36 1017.40 1017.48 1017.56 1017.60 1017.60 1017.56 1017.48 1017.44 1017.40 1017.36 1017.40 1017.44 1017.44 1017.44 1017.44 1017.44 1017.48 1017.48 1017.48 1017.52 1017.56 1017.60 1017.60 1017.60 1017.64 1017.72 1017.76 1017.80 1017.76 1017.72 1017.60 1017.44 1017.28 1017.20 1017.04 1016.96 1016.88 1016.80 1016.68 1016.56 1016.48 1016.44 1016.48 1016.48 1016.44 1016.40 1016.32 1016.20 1016.08 1015.96 1015.76 1015.60 1015.48 1015.36 1015.24 1015.12 1015.00 1014.92 1014.76
1017.20 1017.24 1017.32 1017.32 1017.36 1017.36 1017.36 1017.36 1017.36 1017.36 1017.44 1017.48 1017.48 1017.52 1017.48 1017.48 1017.44 1017.36 1017.36 1017.40 1017.44 1017.48 1017.48 1017.48 1017.48 1017.52 1017.60 1017.60 1017.60 1017.60 1017.64 1017.68 1017.72 1017.72 1017.72 1017.76 1017.80 1017.84 1017.80 1017.76 1017.60 1017.44 1017.28 1017.12 1017.04 1016.92 1016.80 1016.68 1016.60 1016.48 1016.40 1016.36 1016.32 1016.32 1016.32 1016.24 1016.16 1016.04 1015.88 1015.76 1015.56 1015.40 1015.28 1015.20 1015.04 1014.92 1014.76 1014.64 1014.48
1017.08 1017.16 1017.20 1017.28 1017.32 1017.36 1017.40 1017.36 1017.36 1017.36 1017.40 1017.44 1017.40 1017.40 1017.40 1017.40 1017.40 1017.40 1017.40 1017.40 1017.48 1017.56 1017.60 1017.60 1017.60 1017.64 1017.68 1017.72 1017.76 1017.76 1017.72 1017.76 1017.76 1017.76 1017.76 1017.76 1017.80 1017.84 1017.84 1017.76 1017.60 1017.40 1017.24 1017.08 1016.96 1016.84 1016.72 1016.60 1016.48 1016.36 1016.32 1016.28 1016.24 1016.20 1016.16 1016.04 1015.96 1015.84 1015.72 1015.56 1015.40 1015.20 1015.08 1015.00 1014.88 1014.72 1014.56 1014.44 1014.24
1016.92 1017.00 1017.04 1017.20 1017.28 1017.32 1017.36 1017.36 1017.36 1017.36 1017.32 1017.36 1017.40 1017.40 1017.40 1017.40 1017.40 1017.40 1017.40 1017.44 1017.48 1017.60 1017.64 1017.72 1017.72 1017.76 1017.76 1017.84 1017.84 1017.80 1017.76 1017.76 1017.76 1017.80 1017.76 1017.76 1017.76 1017.76 1017.76 1017.72 1017.52 1017.32 1017.20 1017.00 1016.92 1016.76 1016.64 1016.56 1016.44 1016.28 1016.20 1016.20 1016.12 1016.08 1016.00 1015.88 1015.80 1015.64 1015.52 1015.40 1015.24 1015.08 1014.92 1014.80 1014.68 1014.48 1014.32 1014.20 1014.00
1016.76 1016.84 1016.96 1017.08 1017.20 1017.24 1017.28 1017.32 1017.32 1017.32 1017.36 1017.36 1017.40 1017.40 1017.40 1017.40 1017.40 1017.40 1017.44 1017.52 1017.60 1017.64 1017.72 1017.76 1017.80 1017.84 1017.88 1017.88 1017.88 1017.84 1017.76 1017.76 1017.76 1017.76 1017.76 1017.76 1017.72 1017.60 1017.56 1017.60 1017.48 1017.32 1017.12 1016.96 1016.84 1016.72 1016.60 1016.48 1016.32 1016.20 1016.04 1016.04 1016.00 1015.92 1015.88 1015.76 1015.64 1015.52 1015.36 1015.24 1015.08 1014.92 1014.68 1014.52 1014.44 1014.28 1014.08 1013.96 1013.80
1016.60 1016.76 1016.92 1017.04 1017.12 1017.20 1017.24 1017.32 1017.32 1017.32 1017.36 1017.36 1017.40 1017.40 1017.40 1017.44 1017.48 1017.52 1017.60 1017.64 1017.72 1017.76 1017.76 1017.80 1017.88 1017.88 1017.88 1017.88 1017.88 1017.88 1017.84 1017.76 1017.72 1017.72 1017.72 1017.68 1017.64 1017.52 1017.48 1017.48 1017.40 1017.28 1017.12 1016.96 1016.80 1016.68 1016.52 1016.36 1016.20 1016.08 1015.96 1015.88 1015.80 1015.76 1015.76 1015.64 1015.52 1015.36 1015.20 1015.04 1014.92 1014.76 1014.52 1014.28 1014.12 1014.00 1013.88 1013.76 1013.64
Thickness
5516 5513 5511 5508 5505 5502 5499 5497 5494 5492 5489 5487 5484 5481 5478 5475 5473 5471 5469 5468 5466 5464 5462 5460 5459 5457 5455 5453 5451 5449 5446 5443 5440 5438 5435 5433 5431 5428 5426 5423 5420 5417 5413 5410 5407 5403 5401 5398 5397 5395 5394 5393 5392 5389 5386 5383 5380 5376 5373 5371 5369 5368 5366 5365 5364 5363 5362 5362 5361
5512 5509 5507 5504 5501 5498 5495 5492 5490 5487 5485 5482 5480 5476 5473 5470 5468 5466 5464 5462 5461 5459 5456 5454 5452 5451 5449 5447 5445 5443 5440 5437 5434 5432 5428 5426 5423 5421 5418 5416 5413 5410 5408 5404 5401 5398 5397 5395 5394 5393 5390 5388 5385 5382 5378 5375 5373 5371 5369 5367 5366 5364 5363 5362 5361 5360 5360 5359 5358
5508 5505 5503 5500 5497 5494 5491 5488 5486 5483 5480 5477 5474 5471 5468 5465 5463 5461 5459 5457 5455 5453 5451 5448 5446 5444 5442 5441 5439 5437 5434 5432 5428 5425 5422 5419 5416 5413 5411 5409 5406 5404 5401 5399 5396 5394 5393 5392 5389 5387 5383 5380 5378 5376 5373 5371 5369 5367 5365 5363 5362 5361 5360 5359 5358 5357 5357 5356 5355
5503 5501 5498 5496 5493 5490 5487 5484 5481 5478 5475 5472 5469 5466 5463 5460 5459 5456 5454 5452 5450 5448 5446 5443 5440 5438 5436 5435 5433 5431 5428 5425 5423 5419 5415 5412 5409 5406 5403 5400 5399 5397 5395 5393 5391 5389 5387 5384 5382 5378 5375 5373 5372 5370 5368 5367 5364 5362 5361 5359 5358 5357 5357 5356 5356 5355 5354 5353 5352
5499 5497 5494 5491 5489 5486 5483 5479 5476 5473 5470 5467 5464 5461 5458 5456 5454 5452 5449 5447 5445 5442 5440 5437 5435 5433 5431 5429 5427 5425 5422 5420 5417 5414 5410 5407 5403 5401 5397 5394 5393 5391 5388 5387 5384 5382 5379 5376 5374 5372 5370 5368 5367 5365 5363 5362 5360 5358 5356 5356 5355 5355 5354 5354 5353 5352 5351 5349 5348
5494 5492 5489 5486 5484 5481 5478 5475 5472 5468 5465 5463 5460 5457 5453 5451 5449 5446 5444 5441 5438 5436 5434 5432 5429 5426 5424 5422 5420 5417 5415 5413 5410 5407 5404 5401 5398 5395 5393 5390 5387 5385 5383 5380 5378 5376 5373 5371 5369 5366 5365 5363 5361 5360 5358 5357 5355 5353 5353 5352 5351 5351 5351 5350 5349 5348 5347 5345 5344
5489 5486 5484 5481 5478 5476 5473 5470 5467 5464 5461 5458 5455 5453 5449 5447 5444 5442 5439 5436 5433 5431 5428 5426 5424 5421 5418 5416 5413 5411 5408 5405 5402 5400 5397 5394 5391 5389 5387 5385 5383 5380 5377 5374 5372 5370 5368 5366 5364 5362 5360 5358 5356 5355 5354 5354 5353 5351 5350 5349 5349 5348 5347 5345 5344 5343 5341 5340 5338
5484 5482 5479 5477 5474 5471 5468 5465 5462 5459 5456 5453 5451 5448 5445 5442 5439 5437 5434 5431 5429 5426 5423 5421 5419 5417 5415 5411 5409 5405 5402 5400 5396 5394 5392 5389 5386 5383 5381 5379 5377 5374 5372 5370 5367 5365 5363 5361 5359 5357 5356 5354 5353 5352 5352 5351 5349 5347 5346 5345 5344 5343 5342 5340 5339 5338 5336 5334 5333
5479 5477 5474 5472 5469 5467 5464 5461 5458 5455 5452 5449 5447 5445 5442 5439 5437 5433 5430 5427 5424 5422 5420 5417 5415 5412 5409 5407 5404 5402 5399 5395 5392 5389 5386 5384 5381 5379 5376 5374 5372 5370 5368 5365 5363 5361 5359 5357 5355 5354 5353 5352 5351 5349 5347 5346 5344 5342 5341 5340 5339 5337 5336 5335 5334 5332 5330 5329 5328
5476 5473 5470 5468 5465 5462 5459 5456 5453 5451 5449 5446 5443 5441 5438 5436 5432 5430 5427 5424 5421 5418 5415 5413 5410 5407 5405 5402 5400 5397 5395 5392 5388 5385 5382 5379 5377 5375 5372 5370 5368 5366 5364 5362 5360 5358 5356 5354 5352 5350 5349 5347 5345 5343 5342 5341 5339 5338 5336 5335 5334 5332 5330 5329 5327 5326 5325 5324 5323
5471 5469 5467 5464 5461 5457 5455 5452 5450 5448 5445 5442 5439 5437 5435 5432 5429 5426 5423 5420 5417 5414 5411 5408 5406 5403 5400 5397 5396 5393 5390 5387 5384 5381 5378 5375 5372 5370 5368 5366 5365 5362 5361 5358 5357 5354 5352 5349 5347 5345 5343 5342 5341 5339 5338 5336 5334 5333 5331 5330 5329 5327 5326 5324 5323 5322 5321 5319 5319
5468 5465 5463 5460 5457 5453 5451 5448 5446 5443 5441 5438 5436 5433 5431 5428 5425 5422 5419 5415 5413 5410 5408 5405 5402 5399 5396 5393 5391 5389 5386 5383 5380 5377 5374 5371 5369 5367 5364 5362 5360 5358 5357 5355 5353 5351 5348 5346 5344 5342 5340 5339 5337 5336 5334 5332 5331 5329 5328 5326 5324 5323 5321 5320 5319 5317 5316 5315 5314
5465 5462 5459 5456 5453 5450 5447 5445 5442 5439 5437 5435 5432 5429 5427 5424 5421 5419 5415 5412 5409 5406 5403 5401 5398 5395 5393 5390 5387 5385 5382 5378 5376 5373 5370 5367 5364 5362 5359 5357 5356 5354 5352 5351 5349 5347 5345 5342 5341 5339 5337 5336 5334 5332 5331 5329 5327 5325 5324 5322 5320 5319 5318 5316 5315 5313 5312 5311 5310
5461 5458 5455 5452 5449 5446 5443 5441 5438 5436 5433 5431 5428 5426 5423 5420 5417 5414 5411 5408 5406 5402 5399 5396 5394 5391 5389 5386 5383 5380 5377 5374 5371 5368 5365 5362 5359 5357 5354 5353 5351 5349 5348 5346 5345 5344 5342 5340 5337 5336 5334 5332 5331 5329 5327 5325 5324 5322 5320 5319 5316 5315 5314 5313 5312 5310 5308 5307 5306
5456 5453 5450 5448 5445 5442 5439 5437 5435 5432 5430 5427 5425 5422 5420 5416 5413 5410 5408 5405 5402 5399 5396 5393 5390 5387 5385 5382 5380 5376 5373 5370 5366 5363 5360 5356 5354 5351 5349 5347 5345 5344 5343 5342 5341 5340 5338 5337 5335 5333 5331 5329 5327 5326 5323 5322 5320 5318 5317 5315 5314 5312 5311 5310 5308 5306 5305 5304 5303
5451 5448 5445 5443 5440 5438 5435 5434 5432 5429 5426 5423 5421 5418 5415 5413 5410 5406 5404 5401 5398 5395 5392 5389 5386 5384 5381 5378 5375 5372 5368 5364 5361 5358 5355 5351 5349 5347 5344 5341 5340 5339 5338 5337 5337 5335 5334 5333 5331 5329 5327 5325 5324 5322 5320 5318 5317 5315 5313 5312 5311 5309 5307 5306 5305 5303 5302 5301 5299
5446 5443 5441 5438 5436 5434 5431 5429 5427 5425 5422 5419 5416 5414 5411 5408 5406 5403 5400 5398 5394 5391 5388 5385 5382 5379 5376 5373 5370 5367 5362 5359 5356 5353 5349 5347 5344 5341 5339 5337 5336 5334 5334 5332 5331 5331 5329 5328 5327 5325 5324 5322 5320 5318 5316 5315 5313 5312 5310 5309 5308 5306 5305 5303 5302 5300 5299 5297 5296
5441 5439 5436 5433 5431 5429 5427 5425 5423 5420 5418 5415 5412 5410 5407 5405 5402 5399 5396 5393 5391 5387 5384 5381 5377 5375 5372 5368 5364 5361 5357 5354 5351 5347 5344 5342 5339 5337 5335 5333 5331 5330 5329 5328 5327 5326 5325 5324 5323 5321 5319 5318 5316 5314 5313 5311 5309 5308 5307 5305 5304 5302 5301 5300 5298 5297 5295 5293 5292
5438 5436 5433 5430 5428 5425 5423 5421 5419 5417 5414 5411 5408 5406 5403 5400 5398 5395 5391 5388 5386 5383 5379 5376 5373 5369 5366 5362 5359 5356 5352 5349 5345 5342 5340 5338 5336 5333 5331 5329 5327 5326 5324 5323 5322 5321 5321 5320 5318 5316 5315 5314 5312 5310 5309 5308 5305 5304 5303 5302 5300 5298 5297 5295 5294 5292 5291 5289 5288
5436 5433 5431 5428 5426 5423 5420 5418 5415 5413 5410 5407 5404 5402 5399 5396 5393 5390 5387 5383 5381 5377 5374 5371 5367 5364 5360 5357 5354 5350 5347 5344 5341 5338 5336 5334 5332 5329 5327 5325 5323 5321 5319 5318 5317 5316 5316 5314 5313 5312 5311 5309 5307 5306 5305 5303 5301 5300 5298 5297 5295 5294 5293 5292 5290 5288 5287 5285 5283
5433 5431 5429 5427 5424 5421 5417 5414 5412 5409 5407 5403 5401 5398 5395 5392 5388 5386 5383 5379 5376 5372 5368 5365 5361 5358 5354 5351 5348 5345 5342 5340 5337 5335 5332 5330 5327 5325 5323 5321 5318 5316 5315 5313 5312 5311 5310 5310 5309 5307 5306 5305 5303 5302 5300 5298 5297 5296 5294 5293 5292 5290 5289 5288 5286 5284 5283 5281 5280
5430 5428 5426 5424 5421 5418 5415 5411 5409 5406 5403 5399 5397 5394 5391 5387 5384 5381 5378 5374 5371 5367 5363 5360 5356 5353 5350 5347 5343 5341 5338 5335 5333 5331 5328 5326 5323 5321 5319 5316 5315 5312 5310 5308 5308 5306 5306 5305 5303 5303 5302 5300 5299 5297 5296 5295 5293 5292 5290 5289 5288 5286 5285 5284 5282 5281 5279 5278 5276
5428 5426 5423 5421 5417 5414 5411 5408 5405 5402 5398 5396 5392 5390 5386 5383 5380 5376 5372 5369 5365 5362 5358 5355 5351 5348 5345 5342 5339 5337 5334 5332 5329 5327 5324 5322 5319 5317 5315 5312 5310 5308 5306 5305 5303 5302 5301 5300 5300 5299 5297 5296 5294 5294 5292 5290 5289 5288 5287 5286 5284 5283 5282 5280 5279 5277 5275 5274 5272
5425 5422 5419 5416 5413 5410 5407 5405 5401 5398 5395 5391 5388 5385 5382 5378 5374 5370 5367 5363 5360 5357 5353 5350 5347 5344 5341 5338 5336 5333 5330 5328 5325 5323 5320 5317 5315 5313 5310 5308 5306 5304 5302 5301 5300 5299 5298 5297 5296 5295 5294 5293 5291 5290 5288 5287 5286 5285 5283 5282 5281 5280 5279 5277 5276 5274 5272 5270 5268
5422 5418 5415 5413 5410 5407 5404 5400 5397 5394 5391 5388 5384 5381 5377 5373 5370 5366 5362 5359 5355 5352 5349 5346 5342 5339 5337 5334 5331 5328 5326 5324 5321 5318 5315 5313 5311 5309 5307 5304 5302 5301 5299 5298 5297 5297 5295 5294 5293 5292 5291 5289 5288 5287 5285 5285 5283 5281 5280 5278 5277 5276 5275 5273 5272 5270 5267 5266 5264
5418 5415 5412 5409 5406 5403 5400 5397 5394 5391 5388 5384 5381 5376 5372 5369 5365 5362 5358 5355 5351 5348 5345 5341 5338 5334 5331 5329 5326 5324 5321 5319 5316 5314 5311 5309 5307 5305 5303 5301 5300 5298 5296 5295 5294 5293 5292 5292 5290 5289 5287 5286 5285 5283 5282 5280 5279 5277 5275 5273 5272 5270 5269 5268 5267 5266 5264 5262 5260
5414 5411 5409 5406 5402 5399 5396 5393 5390 5387 5383 5379 5375 5371 5368 5364 5361 5358 5354 5351 5347 5343 5340 5336 5333 5329 5327 5325 5322 5319 5316 5314 5311 5308 5307 5304 5302 5301 5299 5298 5296 5294 5293 5292 5291 5290 5289 5288 5287 5285 5283 5282 5280 5278 5277 5275 5274 5272 5270 5268 5266 5265 5264 5263 5262 5261 5260 5258 5256
5411 5408 5405 5402 5398 5394 5391 5387 5384 5380 5377 5373 5370 5366 5363 5360 5357 5353 5349 5346 5342 5339 5335 5331 5328 5325 5323 5320 5317 5314 5311 5309 5306 5305 5303 5301 5299 5297 5296 5294 5293 5291 5290 5288 5287 5287 5285 5284 5282 5281 5279 5277 5275 5273 5272 5270 5268 5267 5265 5264 5262 5261 5260 5258 5258 5256 5256 5254 5253
5405 5403 5399 5396 5392 5388 5384 5380 5377 5374 5371 5368 5365 5362 5358 5355 5352 5348 5345 5342 5338 5335 5331 5327 5324 5321 5319 5315 5313 5310 5308 5305 5303 5301 5299 5297 5295 5293 5292 5290 5289 5288 5287 5285 5284 5282 5281 5279 5278 5276 5274 5273 5270 5268 5267 5266 5264 5263 5262 5260 5259 5257 5256 5254 5253 5252 5251 5250 5249
5398 5396 5392 5388 5385 5381 5378 5375 5372 5369 5366 5363 5359 5356 5352 5349 5346 5343 5340 5337 5333 5330 5327 5324 5321 5317 5315 5312 5309 5306 5304 5302 5300 5298 5296 5293 5292 5290 5289 5287 5285 5284 5283 5281 5280 5278 5277 5274 5273 5271 5270 5269 5267 5265 5263 5262 5260 5259 5258 5256 5255 5254 5252 5251 5249 5248 5247 5245 5245
5392 5390 5386 5382 5379 5376 5372 5369 5366 5363 5360 5357 5354 5350 5347 5343 5341 5337 5334 5332 5328 5325 5323 5320 5317 5314 5311 5308 5305 5303 5301 5299 5297 5295 5293 5291 5289 5287 5286 5284 5282 5281 5278 5277 5275 5274 5272 5270 5269 5267 5266 5265 5263 5261 5259 5258 5256 5255 5254 5253 5251 5250 5248 5247 5245 5244 5243 5242 5241
5387 5385 5381 5377 5374 5370 5367 5364 5361 5358 5354 5351 5348 5344 5341 5338 5334 5332 5329 5326 5323 5321 5318 5315 5312 5309 5307 5304 5302 5300 5298 5296 5294 5292 5290 5288 5286 5284 5282 5280 5278 5276 5274 5273 5271 5269 5268 5267 5265 5264 5262 5261 5259 5257 5256 5254 5253 5251 5250 5249 5248 5246 5245 5243 5242 5240 5240 5238 5238
5382 5379 5376 5373 5369 5365 5361 5358 5355 5352 5348 5346 5342 5338 5335 5331 5328 5325 5323 5321 5318 5316 5313 5311 5308 5305 5303 5301 5298 5296 5294 5292 5291 5289 5287 5285 5283 5280 5278 5276 5274 5272 5271 5268 5267 5266 5265 5263 5261 5260 5258 5257 5255 5253 5252 5250 5249 5248 5246 5245 5244 5243 5241 5239 5238 5237 5237 5235 5234
5377 5374 5370 5367 5363 5360 5356 5353 5349 5346 5343 5339 5336 5333 5330 5326 5323 5321 5318 5316 5313 5311 5309 5307 5304 5301 5299 5297 5295 5293 5291 5289 5287 5286 5283 5281 5279 5276 5274 5272 5270 5268 5266 5265 5263 5262 5260 5259 5257 5256 5255 5254 5252 5250 5248 5246 5245 5244 5243 5242 5241 5240 5238 5237 5236 5235 5233 5233 5232
5371 5367 5364 5361 5357 5354 5350 5347 5344 5341 5338 5334 5331 5327 5324 5321 5318 5316 5313 5311 5309 5307 5304 5302 5300 5297 5295 5293 5291 5289 5287 5285 5283 5282 5279 5276 5274 5271 5269 5267 5265 5264 5263 5261 5260 5258 5257 5255 5253 5252 5251 5249 5248 5246 5244 5243 5242 5241 5240 5239 5238 5237 5236 5234 5233 5232 5231 5230 5230
5365 5361 5358 5354 5351 5348 5345 5342 5339 5336 5333 5329 5326 5322 5319 5316 5313 5312 5309 5307 5305 5302 5300 5297 5295 5293 5291 5289 5287 5285 5282 5281 5278 5276 5274 5272 5269 5267 5264 5263 5261 5260 5259 5257 5255 5254 5253 5251 5250 5249 5247 5246 5244 5242 5241 5240 5239 5238 5237 5236 5235 5234 5233 5232 5230 5230 5229 5228 5228
5360 5357 5353 5350 5346 5343 5340 5337 5334 5331 5328 5324 5321 5317 5315 5312 5309 5307 5305 5302 5300 5297 5295 5293 5291 5289 5286 5284 5282 5280 5278 5276 5273 5272 5269 5267 5265 5262 5260 5258 5257 5255 5254 5252 5251 5250 5248 5247 5246 5245 5244 5242 5241 5239 5238 5237 5236 5235 5234 5233 5233 5232 5231 5229 5228 5227 5227 5226 5227
5355 5352 5349 5345 5342 5338 5335 5332 5329 5326 5322 5319 5316 5313 5310 5307 5304 5302 5299 5297 5295 5292 5290 5287 5286 5284 5282 5279 5277 5275 5273 5270 5269 5267 5265 5263 5260 5258 5256 5254 5252 5252 5250 5249 5247 5246 5245 5243 5242 5241 5240 5238 5237 5237 5235 5234 5233 5233 5232 5231 5230 5229 5228 5227 5226 5226 5226 5226 5226
5350 5347 5344 5341 5336 5333 5330 5327 5323 5320 5317 5313 5310 5307 5304 5302 5299 5297 5295 5293 5290 5288 5285 5283 5281 5279 5276 5274 5272 5270 5269 5267 5264 5262 5260 5258 5256 5254 5252 5250 5249 5248 5246 5245 5244 5242 5241 5240 5239 5238 5237 5235 5234 5233 5232 5232 5231 5230 5229 5228 5227 5226 5226 5225 5224 5225 5225 5225 5226
5347 5344 5339 5335 5332 5328 5324 5320 5317 5314 5311 5308 5304 5301 5298 5296 5294 5292 5290 5287 5285 5283 5281 5278 5277 5274 5272 5270 5268 5266 5265 5263 5260 5258 5256 5254 5252 5250 5249 5246 5245 5244 5243 5241 5240 5239 5238 5237 5236 5235 5234 5233 5231 5230 5229 5229 5228 5228 5226 5226 5225 5224 5224 5225 5224 5224 5224 5225 5225
5343 5339 5334 5330 5326 5322 5318 5315 5311 5308 5305 5303 5299 5296 5294 5291 5289 5287 5285 5282 5280 5278 5276 5274 5272 5270 5268 5266 5264 5262 5260 5258 5257 5255 5252 5250 5249 5247 5246 5243 5241 5240 5239 5238 5236 5235 5234 5234 5232 5232 5231 5230 5229 5228 5226 5226 5225 5224 5224 5223 5223 5223 5223 5224 5224 5224 5224 5224 5224